EW8543 Weather Reports


Display with metric or nautical units.
time (UTC)temp
F
wind
direction
speed
MPH
gust
MPH
rain 1hr
in
rain 24hr
in
rain mn
in
humidity
%
barometer
mb
20260903233020 69 213 10.0 21.0 0.00 0.12 0.00 91 1014.4
20260903232554 69 243 8.0 21.0 0.00 0.12 0.00 91 1014.5
20260903232022 69 223 8.0 21.0 0.00 0.12 0.00 91 1014.4
20260903231531 69 184 9.0 22.0 0.00 0.12 0.00 91 1014.4
20260903231033 69 180 11.0 22.0 0.00 0.12 0.00 91 1014.5
20260903230520 69 191 10.0 22.0 0.00 0.12 0.00 91 1014.5
20260903230020 69 160 11.0 20.0 0.00 0.12 0.00 91 1014.7
20260903225528 69 176 13.0 21.0 0.00 0.12 0.00 91 1014.8
20260903225028 69 160 9.0 16.0 0.00 0.12 0.00 91 1014.7
20260903224537 69 182 8.0 17.0 0.00 0.12 0.00 90 1014.9
20260903224022 69 190 9.0 22.0 0.00 0.12 0.00 90 1014.8
20260903223524 69 199 12.0 22.0 0.00 0.12 0.00 90 1014.9
20260903223030 69 173 11.0 22.0 0.00 0.12 0.00 90 1014.9
20260903222535 69 217 8.0 21.0 0.00 0.12 0.00 90 1015.0
20260903222042 69 196 11.0 21.0 0.00 0.12 0.00 90 1014.9
20260903221549 69 231 12.0 24.0 0.00 0.12 0.00 90 1015.1
20260903221033 69 187 12.0 24.0 0.00 0.12 0.00 90 1015.2
20260903220517 69 246 10.0 21.0 0.00 0.12 0.00 90 1015.2
20260903220030 69 165 10.0 20.0 0.00 0.12 0.00 90 1015.2
20260903215534 69 234 9.0 21.0 0.00 0.12 0.02 90 1015.3
20260903215022 69 187 11.0 21.0 0.00 0.12 0.02 90 1015.3
20260903214525 69 217 13.0 24.0 0.00 0.12 0.02 90 1015.4
20260903214031 69 210 11.0 24.0 0.00 0.12 0.02 90 1015.3
20260903213537 69 149 10.0 29.0 0.00 0.12 0.02 90 1015.4
20260903213024 69 235 14.0 19.0 0.00 0.12 0.02 90 1015.5
20260903212534 69 206 9.0 20.0 0.00 0.12 0.02 90 1015.5
20260903212018 69 175 10.0 22.0 0.00 0.12 0.02 90 1015.5
20260903211523 69 212 12.0 22.0 0.00 0.12 0.02 90 1015.4
20260903211030 69 212 11.0 21.0 0.00 0.12 0.02 90 1015.5
20260903210536 69 157 13.0 27.0 0.00 0.12 0.02 90 1015.5
20260903210056 69 151 11.0 29.0 0.00 0.12 0.02 91 1015.6
20260903205519 69 162 8.0 21.0 0.00 0.12 0.02 91 1015.4
20260903205045 69 263 9.0 25.0 0.00 0.12 0.02 90 1015.6
20260903204530 69 192 9.0 24.0 0.00 0.12 0.02 90 1015.7
20260903204030 69 165 13.0 24.0 0.00 0.12 0.02 90 1015.7
20260903203518 69 213 13.0 22.0 0.00 0.12 0.02 90 1016.1
20260903203022 69 228 10.0 22.0 0.00 0.12 0.02 90 1016.0
20260903202527 69 245 9.0 21.0 0.00 0.12 0.02 90 1016.1
20260903202031 69 126 8.0 20.0 0.00 0.12 0.02 90 1016.0
20260903201535 69 185 12.0 20.0 0.00 0.12 0.02 90 1016.0
20260903201019 69 155 11.0 21.0 0.00 0.12 0.02 90 1016.2
20260903200527 69 227 13.0 23.0 0.00 0.12 0.02 90 1016.2
20260903200025 69 256 12.0 31.0 0.00 0.12 0.02 90 1016.2
20260903195532 69 180 13.0 34.0 0.00 0.12 0.02 90 1016.0
20260903195033 69 130 10.0 20.0 0.00 0.12 0.02 90 1016.1
20260903194522 69 221 10.0 27.0 0.00 0.12 0.02 90 1016.1
20260903194025 69 140 11.0 27.0 0.00 0.12 0.02 90 1016.1
20260903193553 69 215 10.0 22.0 0.00 0.12 0.02 90 1016.1
20260903193033 69 174 11.0 22.0 0.00 0.12 0.02 90 1016.2
20260903192037 69 187 9.0 28.0 0.00 0.12 0.02 90 1016.2
20260903191546 69 115 12.0 24.0 0.00 0.12 0.02 90 1016.1
20260903191028 69 261 8.0 27.0 0.00 0.12 0.02 90 1016.0
20260903190532 69 188 9.0 27.0 0.00 0.12 0.02 90 1016.1
20260903190035 69 219 9.0 16.0 0.00 0.12 0.02 90 1016.2
20260903185524 69 209 10.0 22.0 0.00 0.12 0.02 90 1016.1
20260903185028 69 151 11.0 22.0 0.00 0.12 0.02 90 1016.1
20260903184527 69 172 10.0 19.0 0.00 0.12 0.02 90 1016.2
20260903184034 69 207 12.0 19.0 0.00 0.12 0.02 90 1016.3
20260903183523 69 185 8.0 24.0 0.00 0.12 0.02 90 1016.3
20260903183050 69 175 11.0 24.0 0.00 0.12 0.02 90 1016.4
20260903182528 69 183 13.0 23.0 0.00 0.12 0.02 90 1016.3
20260903182033 69 65 9.0 24.0 0.00 0.12 0.02 90 1016.3
20260903181521 69 146 11.0 24.0 0.00 0.12 0.02 89 1016.4
20260903181027 69 181 10.0 24.0 0.00 0.12 0.02 89 1016.4
20260903180548 69 198 12.0 24.0 0.00 0.12 0.02 89 1016.3
20260903180023 69 165 10.0 25.0 0.00 0.12 0.02 89 1016.3
20260903175549 69 200 13.0 25.0 0.00 0.12 0.02 89 1016.3
20260903175032 70 180 11.0 24.0 0.00 0.12 0.02 89 1016.3
20260903174521 70 205 8.0 13.0 0.00 0.12 0.02 89 1016.3
20260903174024 70 192 7.0 14.0 0.00 0.12 0.02 88 1016.6
20260903173533 70 138 6.0 20.0 0.00 0.12 0.02 88 1016.3
20260903173020 70 136 10.0 22.0 0.00 0.12 0.02 88 1016.4
20260903172526 70 156 9.0 16.0 0.00 0.12 0.02 88 1016.6
20260903172027 70 167 10.0 24.0 0.00 0.12 0.02 88 1016.5
20260903171535 70 188 13.0 24.0 0.00 0.12 0.02 87 1016.6
20260903171022 70 155 7.0 24.0 0.00 0.12 0.02 87 1016.5
20260903170529 70 233 11.0 22.0 0.00 0.12 0.02 87 1016.6
20260903170029 70 197 7.0 17.0 0.00 0.12 0.02 87 1016.7
20260903165551 70 173 10.0 21.0 0.00 0.12 0.02 86 1016.6
20260903165018 71 235 10.0 18.0 0.00 0.12 0.02 86 1016.5
20260903164527 71 172 9.0 15.0 0.00 0.12 0.02 86 1016.4
20260903164033 71 167 9.0 22.0 0.00 0.12 0.02 86 1016.3
20260903163521 71 185 11.0 22.0 0.00 0.12 0.02 85 1016.4
20260903163022 71 139 7.0 19.0 0.00 0.12 0.02 85 1016.4
20260903162528 71 215 9.0 19.0 0.00 0.12 0.02 85 1016.3
20260903162036 71 157 9.0 18.0 0.00 0.12 0.02 85 1016.3
20260903161523 71 189 9.0 18.0 0.00 0.12 0.02 85 1016.7
20260903161022 71 202 9.0 17.0 0.00 0.12 0.02 84 1016.9
20260903160532 72 253 9.0 18.0 0.00 0.12 0.02 84 1016.9
20260903160033 72 164 11.0 22.0 0.00 0.12 0.02 83 1016.9
20260903155521 72 217 11.0 22.0 0.00 0.12 0.02 83 1016.8
20260903155030 72 161 8.0 20.0 0.00 0.12 0.02 83 1016.7
20260903154517 72 234 8.0 18.0 0.00 0.12 0.02 83 1016.6
20260903154022 72 220 8.0 18.0 0.00 0.12 0.02 82 1016.7
20260903153529 72 239 10.0 18.0 0.00 0.12 0.02 83 1016.6
20260903153036 72 169 9.0 25.0 0.00 0.12 0.02 83 1016.6
20260903152523 72 217 13.0 25.0 0.00 0.12 0.02 83 1016.7
20260903152026 72 257 7.0 19.0 0.00 0.12 0.02 83 1016.7
20260903151534 72 218 10.0 16.0 0.00 0.12 0.02 83 1016.8
20260903151021 72 221 8.0 21.0 0.00 0.12 0.02 82 1016.8
20260903150527 72 226 9.0 21.0 0.00 0.12 0.02 82 1016.9
20260903150025 73 219 10.0 17.0 0.00 0.12 0.02 81 1016.8
20260903145545 73 254 7.0 18.0 0.00 0.12 0.02 81 1016.9
20260903145027 73 232 8.0 17.0 0.00 0.12 0.02 79 1016.9
20260903144534 73 152 9.0 17.0 0.00 0.12 0.02 79 1016.8
20260903144022 73 229 9.0 19.0 0.00 0.12 0.02 79 1016.8
20260903143028 73 267 7.0 23.0 0.00 0.12 0.02 80 1016.9
20260903142534 73 205 11.0 23.0 0.00 0.12 0.02 80 1016.9
20260903142018 73 216 10.0 21.0 0.00 0.12 0.02 80 1016.8
20260903141545 73 209 10.0 20.0 0.00 0.12 0.02 80 1016.8
20260903141056 73 236 11.0 20.0 0.00 0.12 0.02 80 1016.7
20260903140542 72 144 9.0 21.0 0.00 0.12 0.02 79 1016.8
20260903140037 72 300 9.0 23.0 0.00 0.12 0.02 80 1016.8
20260903135521 72 236 11.0 23.0 0.00 0.12 0.02 79 1016.8
20260903135022 72 246 9.0 14.0 0.00 0.12 0.02 80 1016.9
20260903134526 72 244 9.0 15.0 0.00 0.12 0.02 78 1016.9
20260903134022 73 246 8.0 16.0 0.00 0.12 0.02 78 1016.8
20260903133527 73 250 6.0 23.0 0.00 0.12 0.02 77 1016.7
20260903133051 73 244 12.0 20.0 0.00 0.12 0.02 77 1016.8
20260903132519 73 202 15.0 20.0 0.00 0.12 0.02 76 1016.8
20260903132024 73 209 11.0 19.0 0.00 0.12 0.02 77 1016.8
20260903131526 73 186 11.0 21.0 0.00 0.12 0.02 77 1016.8
20260903131034 73 172 11.0 21.0 0.00 0.12 0.02 77 1016.8
20260903130521 73 251 11.0 18.0 0.00 0.12 0.02 78 1016.8
20260903130023 72 202 11.0 25.0 0.00 0.12 0.02 78 1016.8
20260903125521 72 179 11.0 25.0 0.00 0.12 0.02 79 1016.7
20260903125027 72 250 9.0 20.0 0.00 0.12 0.02 79 1016.8
20260903124535 72 260 13.0 18.0 0.00 0.12 0.02 78 1016.9
20260903124023 72 215 9.0 21.0 0.00 0.12 0.02 78 1016.8
20260903123033 72 173 10.0 21.0 0.00 0.12 0.02 77 1016.7
20260903122521 72 230 12.0 21.0 0.00 0.12 0.02 77 1016.7
20260903122028 72 200 10.0 19.0 0.00 0.12 0.02 77 1016.6
20260903121536 72 263 9.0 23.0 0.00 0.12 0.02 77 1016.7
20260903121044 73 233 11.0 24.0 0.00 0.12 0.02 77 1016.8
20260903120530 72 227 14.0 25.0 0.00 0.12 0.02 77 1016.7
20260903120029 72 186 14.0 25.0 0.00 0.12 0.02 77 1016.5
20260903115520 72 248 11.0 22.0 0.00 0.12 0.02 77 1016.4
20260903115022 72 257 12.0 21.0 0.00 0.12 0.02 78 1016.6
20260903114527 72 211 10.0 20.0 0.00 0.12 0.02 79 1016.5
20260903114022 72 259 12.0 20.0 0.00 0.12 0.02 79 1016.4
20260903113531 72 245 9.0 22.0 0.00 0.12 0.02 80 1016.3
20260903113018 72 274 11.0 22.0 0.00 0.12 0.02 79 1016.3
20260903112527 72 209 13.0 24.0 0.00 0.12 0.02 79 1016.3
20260903112029 72 254 10.0 24.0 0.00 0.12 0.02 79 1016.4
20260903111518 72 234 13.0 25.0 0.00 0.12 0.02 79 1016.4
20260903111024 72 227 14.0 23.0 0.00 0.12 0.02 79 1016.3
20260903110528 72 211 10.0 21.0 0.00 0.12 0.02 81 1016.3
20260903110028 72 277 10.0 22.0 0.00 0.12 0.02 80 1016.2
20260903105526 72 246 9.0 22.0 0.00 0.12 0.02 81 1016.2
20260903105032 72 156 9.0 20.0 0.00 0.12 0.02 81 1016.3
20260903104520 71 225 12.0 24.0 0.00 0.12 0.02 81 1016.3
20260903104027 71 248 12.0 24.0 0.00 0.12 0.02 82 1016.4
20260903103526 71 243 14.0 25.0 0.00 0.12 0.02 83 1016.4
20260903103034 70 240 15.0 24.0 0.00 0.12 0.02 82 1016.4
20260903102522 70 263 10.0 22.0 0.00 0.12 0.02 83 1016.5
20260903102027 70 225 11.0 22.0 0.00 0.12 0.02 82 1016.4
20260903101534 70 245 9.0 21.0 0.00 0.12 0.02 82 1016.4
20260903101035 70 251 12.0 21.0 0.00 0.12 0.02 82 1016.4
20260903100521 71 178 9.0 21.0 0.00 0.12 0.02 82 1016.4
20260903100043 71 264 9.0 20.0 0.00 0.12 0.02 82 1016.2
20260903095528 71 207 10.0 18.0 0.00 0.35 0.02 82 1016.2
20260903095029 71 246 9.0 22.0 0.00 0.35 0.02 83 1016.2
20260903094517 71 230 12.0 23.0 0.00 0.35 0.02 82 1016.2
20260903094022 71 242 12.0 23.0 0.00 0.35 0.02 82 1016.2
20260903093526 71 176 9.0 21.0 0.00 0.35 0.02 83 1016.2
20260903093033 71 209 9.0 20.0 0.00 0.35 0.02 83 1016.1
20260903092536 71 140 9.0 23.0 0.00 0.35 0.02 83 1016.1
20260903092022 70 242 14.0 23.0 0.00 0.35 0.02 84 1016.0
20260903091544 70 258 7.0 18.0 0.00 0.35 0.02 85 1016.0
20260903091027 70 271 10.0 22.0 0.00 0.35 0.02 84 1016.1
20260903090531 70 264 12.0 27.0 0.00 0.35 0.02 84 1016.0
20260903090032 69 250 13.0 27.0 0.00 0.35 0.02 85 1016.1
20260903085519 69 211 12.0 22.0 0.00 0.35 0.02 85 1015.7
20260903085045 69 235 12.0 22.0 0.00 0.35 0.02 85 1015.7
20260903084528 69 218 11.0 24.0 0.00 0.35 0.02 86 1015.6
20260903084034 69 244 12.0 24.0 0.00 0.35 0.02 87 1015.6
20260903083520 69 235 11.0 22.0 0.00 0.35 0.02 88 1015.5
20260903083023 69 265 8.0 19.0 0.00 0.35 0.02 88 1015.4
20260903082526 69 190 8.0 24.0 0.00 0.35 0.02 89 1015.3
20260903082046 69 189 12.0 24.0 0.00 0.35 0.02 90 1015.4
20260903081528 69 182 9.0 16.0 0.00 0.35 0.02 90 1015.3
20260903081032 69 155 7.0 20.0 0.00 0.35 0.02 91 1015.3
20260903080518 69 194 8.0 16.0 0.04 0.35 0.02 91 1015.3
20260903080057 68 180 9.0 17.0 0.04 0.35 0.02 92 1015.4
20260903075523 68 144 8.0 17.0 0.04 0.35 0.02 92 1015.4
20260903075029 68 228 7.0 19.0 0.04 0.35 0.02 92 1015.4
20260903074533 68 213 9.0 19.0 0.04 0.35 0.02 92 1015.2
20260903074019 67 242 10.0 19.0 0.04 0.35 0.02 93 1015.3
20260903073522 67 216 9.0 16.0 0.04 0.35 0.02 92 1015.3
20260903073022 67 243 9.0 16.0 0.04 0.35 0.02 92 1015.5
20260903072527 67 182 9.0 16.0 0.04 0.35 0.02 92 1015.4
20260903072034 67 234 7.0 19.0 0.04 0.35 0.02 92 1015.5
20260903071519 67 231 10.0 19.0 0.04 0.35 0.02 92 1015.6
20260903071020 67 200 9.0 16.0 0.04 0.35 0.02 92 1015.6
20260903070525 67 227 10.0 18.0 0.00 0.31 0.02 92 1015.5
20260903070020 67 271 6.0 17.0 0.00 0.31 0.02 92 1015.3
20260903065525 67 253 7.0 18.0 0.00 0.31 0.02 92 1015.4
20260903065023 67 286 9.0 18.0 0.00 0.31 0.02 92 1015.3
20260903064555 67 226 7.0 16.0 0.00 0.31 0.02 92 1015.5
20260903064019 67 234 9.0 20.0 0.00 0.31 0.02 91 1015.6
20260903063527 67 185 12.0 20.0 0.00 0.31 0.02 92 1015.5
20260903063046 67 221 9.0 23.0 0.00 0.31 0.02 92 1015.6
20260903062534 67 225 9.0 21.0 0.00 0.31 0.02 92 1015.5
20260903062019 67 185 7.0 19.0 0.00 0.31 0.02 93 1015.4
20260903061544 67 239 10.0 20.0 0.00 0.31 0.02 92 1015.4
20260903061023 67 184 10.0 20.0 0.00 0.31 0.02 92 1015.3
20260903060530 67 213 10.0 17.0 0.00 0.31 0.02 92 1015.4
20260903060029 67 234 7.0 16.0 0.00 0.31 0.02 92 1015.3
20260903055518 67 184 5.0 20.0 0.00 0.31 0.02 92 1015.2
20260903055026 67 202 6.0 20.0 0.00 0.31 0.02 92 1015.2
20260903054554 67 250 5.0 13.0 0.00 0.31 0.02 92 1015.1
20260903054038 67 202 5.0 14.0 0.00 0.31 0.02 92 1015.2
20260903053525 67 190 7.0 14.0 0.00 0.31 0.02 92 1015.2
20260903053051 67 155 5.0 14.0 0.00 0.31 0.02 92 1015.2
20260903052536 67 197 7.0 14.0 0.00 0.31 0.02 92 1015.0
20260903052021 67 178 7.0 20.0 0.00 0.31 0.02 92 1015.1
20260903051532 67 250 10.0 20.0 0.00 0.31 0.02 92 1015.1
20260903051020 67 243 8.0 19.0 0.00 0.31 0.02 92 1015.2
20260903050527 67 202 7.0 15.0 0.00 0.31 0.02 92 1015.2
20260903050024 67 236 9.0 18.0 0.04 0.31 0.02 92 1015.2
20260903045532 67 193 11.0 18.0 0.04 0.31 0.02 92 1015.2
20260903045017 67 218 7.0 19.0 0.04 0.31 0.02 93 1015.1
20260903044523 67 175 10.0 19.0 0.04 0.31 0.02 93 1015.0
20260903044023 67 194 10.0 18.0 0.04 0.31 0.02 93 1015.1
20260903043534 66 184 8.0 19.0 0.04 0.31 0.02 93 1015.0
20260903043017 66 192 7.0 20.0 0.04 0.31 0.02 93 1015.0
20260903042523 66 203 10.0 20.0 0.04 0.31 0.02 93 1015.1
20260903042056 66 200 11.0 28.0 0.04 0.31 0.02 93 1015.1
20260903041517 66 247 8.0 16.0 0.04 0.31 0.02 94 1014.9
20260903041021 66 257 11.0 19.0 0.04 0.31 0.02 94 1014.9
20260903040545 66 223 9.0 19.0 0.04 0.31 0.02 94 1014.8
20260903040043 66 179 8.0 19.0 0.00 0.28 0.01 94 1014.9
20260903035545 66 215 10.0 19.0 0.00 0.28 0.01 94 1015.0
20260903035050 66 213 6.0 11.0 0.00 0.28 0.01 94 1015.1
20260903034519 65 143 5.0 12.0 0.00 0.28 0.01 94 1015.1
20260903034041 65 207 7.0 12.0 0.00 0.28 0.01 94 1015.2
20260903033529 65 168 8.0 12.0 0.00 0.28 0.01 94 1015.3
20260903033035 65 164 6.0 15.0 0.00 0.28 0.01 93 1015.4
20260903032523 65 178 8.0 12.0 0.04 0.28 0.01 93 1015.5
20260903032029 65 174 7.0 12.0 0.04 0.28 0.01 93 1015.5
20260903031534 65 184 8.0 14.0 0.04 0.28 0.01 93 1015.6
20260903031019 65 166 9.0 16.0 0.04 0.28 0.01 93 1015.6
20260903030527 65 173 9.0 20.0 0.04 0.28 0.01 93 1015.6
20260903030026 65 194 10.0 20.0 0.04 0.28 0.01 93 1015.5
20260903025530 65 155 6.0 16.0 0.04 0.28 0.01 93 1015.4
20260903025032 65 173 8.0 16.0 0.04 0.28 0.01 93 1015.6
20260903024522 65 129 5.0 18.0 0.04 0.28 0.01 92 1015.6
20260903024051 65 115 9.0 18.0 0.04 0.28 0.01 92 1015.5
20260903023519 65 130 9.0 16.0 0.04 0.28 0.01 92 1015.5
20260903023025 65 201 8.0 18.0 0.04 0.28 0.01 92 1015.5
20260903022532 65 124 11.0 21.0 0.00 0.24 0.00 92 1015.7
20260903022017 65 178 6.0 18.0 0.00 0.24 0.00 91 1015.7
20260903021524 65 171 8.0 16.0 0.00 0.24 0.00 91 1015.7
20260903021031 65 163 7.0 16.0 0.00 0.24 0.00 91 1015.8
20260903020536 65 158 11.0 18.0 0.00 0.24 0.00 91 1015.9
20260903020017 65 175 8.0 18.0 0.00 0.24 0.00 90 1016.0
20260903015525 65 198 11.0 22.0 0.00 0.24 0.00 90 1016.0
20260903015055 65 183 10.0 22.0 0.00 0.24 0.00 90 1016.1
20260903014521 65 174 11.0 20.0 0.00 0.24 0.00 89 1016.2
20260903014021 65 197 10.0 26.0 0.00 0.24 0.00 89 1016.0
20260903013531 65 162 12.0 26.0 0.00 0.24 0.00 89 1016.2
20260903013019 65 116 8.0 23.0 0.00 0.24 0.00 88 1016.1
20260903012525 65 142 11.0 23.0 0.00 0.24 0.00 88 1016.1
20260903012026 65 174 9.0 18.0 0.00 0.24 0.00 88 1016.3
20260903011534 65 169 6.0 17.0 0.00 0.24 0.00 88 1016.3
20260903011022 65 199 8.0 17.0 0.00 0.24 0.00 87 1016.4
20260903010527 65 262 8.0 16.0 0.00 0.24 0.00 87 1016.5
20260903010026 65 161 8.0 19.0 0.00 0.24 0.00 86 1016.4
20260903005556 66 161 10.0 19.0 0.00 0.24 0.00 85 1016.5
20260903005040 66 147 11.0 22.0 0.00 0.24 0.00 83 1016.5
20260903004526 67 166 10.0 22.0 0.00 0.24 0.00 83 1016.8
20260903004033 67 171 10.0 20.0 0.00 0.24 0.00 82 1016.7
20260903003518 67 195 9.0 21.0 0.00 0.24 0.00 82 1016.7
20260903003043 67 184 10.0 21.0 0.00 0.24 0.00 81 1016.6
20260903002550 67 227 8.0 23.0 0.00 0.24 0.00 81 1016.7
20260903002036 67 146 8.0 22.0 0.00 0.24 0.00 80 1016.7
20260903001521 67 153 11.0 22.0 0.00 0.24 0.00 80 1016.8
20260903001028 67 263 11.0 22.0 0.00 0.24 0.00 79 1016.9
20260903000517 67 49 9.0 16.0 0.00 0.24 0.00 79 1016.9
20260903000156 67 185 8.0 17.0 0.00 0.24 0.00 78 1017.1
20260902235529 67 182 8.0 18.0 0.00 0.24 0.00 78 1017.1
20260902235056 67 197 9.0 23.0 0.00 0.24 0.00 78 1017.0
20260902234519 67 186 8.0 23.0 0.00 0.24 0.00 77 1017.0
20260902234023 67 138 10.0 20.0 0.00 0.24 0.00 77 1017.0
20260902233529 67 176 12.0 20.0 0.00 0.24 0.00 77 1017.1